Theta_e
323 324 325 325 325 325 325 327 330 330 331 332 332 332 332 332 331 331 331 331 331 331 331 331 330 330 331 330 331 330 326 318 315 314 311 314 323 332 332 334 335 335 325 308 309 310 307 308 308 312 315 307 305 306 306 306 304 302 295 289 289 286 289 292 294 292 292 293 294 294 296 298 294 297 301 305 306 305 308 311 311 314 314 314 316 318 326 325
322 323 323 325 325 325 325 327 329 330 331 331 331 331 332 332 332 331 331 331 331 331 330 331 330 330 330 330 330 328 320 315 313 313 313 323 333 336 337 335 336 332 319 307 306 307 307 305 306 310 308 309 306 307 304 304 305 295 291 291 291 289 292 296 295 293 295 294 295 296 294 299 298 298 299 301 301 305 306 310 310 312 314 316 318 323 323 324
321 323 323 324 326 325 326 326 327 330 330 330 331 331 331 331 331 331 331 330 330 330 330 330 330 330 330 330 328 326 318 312 312 310 316 332 339 338 337 332 330 332 308 305 305 308 309 307 306 306 304 303 303 299 302 300 302 296 294 291 289 293 293 294 294 294 294 296 295 295 295 295 297 298 298 300 300 301 303 307 308 310 310 313 318 322 322 323
321 321 323 323 325 326 325 326 326 329 330 330 330 331 330 330 330 331 330 330 330 330 330 330 329 329 329 328 327 321 317 312 307 311 317 332 338 338 338 333 332 325 307 306 306 306 309 309 308 308 305 300 304 303 301 299 301 298 295 292 294 293 295 295 293 293 292 295 295 295 295 295 296 298 299 298 300 299 300 306 310 310 312 315 319 321 321 322
320 321 322 322 324 326 326 325 325 327 325 329 330 330 330 330 330 330 330 330 330 329 329 329 329 329 328 327 326 320 312 303 304 316 320 334 338 338 333 333 328 308 309 306 308 308 308 307 307 307 305 299 304 300 300 299 301 298 294 297 297 294 293 294 294 294 293 293 296 294 296 296 296 297 297 301 299 298 302 304 309 313 317 317 318 320 321 321
319 321 322 322 323 325 325 325 325 327 326 323 328 330 329 329 330 330 330 330 330 329 329 329 329 328 327 326 321 316 309 293 308 314 330 335 337 335 334 331 324 309 309 309 306 306 307 307 306 302 300 301 299 295 296 300 298 292 295 295 294 293 293 294 294 293 293 296 296 295 298 296 297 296 295 302 301 299 300 305 311 317 319 320 322 321 321 321
320 321 321 322 322 324 325 325 325 326 328 326 323 329 329 329 329 329 329 329 329 329 329 329 328 327 326 325 316 314 307 307 310 314 329 335 336 333 332 327 321 309 310 307 306 305 306 305 306 303 302 299 302 299 300 298 298 296 295 298 296 293 293 293 294 291 292 295 296 296 297 297 295 296 295 298 298 296 295 308 314 319 320 321 320 321 321 321
320 320 320 321 323 324 324 325 325 325 328 329 326 326 329 329 329 329 329 329 329 329 329 328 327 326 325 317 314 309 308 306 313 311 331 334 333 331 325 309 309 309 309 307 306 306 305 304 304 305 301 298 300 300 302 299 298 297 299 299 295 294 293 293 291 291 292 293 293 295 297 297 295 295 294 297 300 296 300 312 318 319 319 319 320 320 321 321
319 319 320 320 321 322 323 324 325 325 326 328 328 328 329 329 329 329 328 328 328 328 328 328 326 326 325 318 312 307 306 313 315 319 330 329 326 322 308 305 308 309 308 308 309 307 307 303 305 306 300 301 304 302 302 298 295 301 299 296 295 295 295 293 292 291 291 293 294 296 295 292 294 295 296 299 298 296 303 316 318 318 317 317 318 320 320 321
318 319 320 320 320 321 322 323 324 325 325 326 328 329 329 329 328 328 328 328 328 328 327 327 326 325 319 314 310 304 311 318 320 325 327 322 318 309 308 305 307 308 306 306 307 307 307 304 306 307 306 301 304 301 302 300 297 299 297 296 295 296 293 293 293 292 291 293 293 297 293 294 292 294 294 296 296 300 308 315 316 317 316 317 318 319 320 320
317 318 318 319 319 320 321 322 323 324 325 325 327 328 329 328 328 328 328 328 328 327 327 326 325 322 314 314 308 303 314 319 320 325 323 320 313 306 304 304 306 307 308 304 306 308 307 305 305 306 305 298 301 297 300 303 304 299 296 296 296 294 292 292 293 292 293 295 291 294 294 293 293 293 293 293 299 302 306 312 314 316 316 317 318 318 319 320
316 317 317 319 319 320 320 321 322 323 324 325 326 327 327 327 328 328 328 328 328 327 327 327 325 320 314 312 307 308 313 318 322 323 321 316 311 308 305 305 305 307 307 303 304 308 306 306 307 303 298 303 297 299 299 304 298 297 298 293 294 295 293 292 294 294 293 295 291 291 294 292 292 293 295 292 302 301 305 312 314 314 315 316 317 318 318 318
316 316 317 318 319 319 320 321 322 323 324 324 324 324 326 327 326 327 328 327 328 327 327 326 324 318 314 306 309 311 316 321 322 321 319 315 310 308 305 304 304 307 309 307 305 306 305 306 306 300 301 302 298 296 300 303 300 298 299 297 293 292 291 292 293 292 293 294 291 293 286 286 292 297 295 296 304 304 304 308 312 313 314 315 315 317 317 317
316 317 317 317 318 319 320 320 322 323 323 323 323 322 324 326 326 327 327 327 328 327 326 325 321 315 312 304 309 310 318 320 320 319 316 313 310 306 304 304 304 304 309 307 306 306 306 305 305 302 303 300 297 302 300 297 296 292 294 295 292 290 286 290 292 293 293 294 292 293 287 287 292 295 293 294 302 304 303 306 310 311 312 313 314 316 316 317
316 316 316 317 317 318 319 320 321 322 323 323 321 320 319 322 326 326 327 327 327 327 326 325 316 315 308 306 309 317 324 320 317 316 315 312 307 303 302 304 301 302 301 304 304 306 306 305 304 300 297 298 299 296 293 294 294 291 290 289 290 288 288 292 292 291 293 293 292 292 286 290 293 292 289 289 299 302 301 303 307 309 311 312 313 315 316 317
315 316 316 316 317 317 318 319 320 321 323 323 320 319 318 318 324 327 327 326 327 326 325 317 313 314 308 303 307 324 315 312 313 315 312 313 309 305 304 301 299 301 303 300 303 304 305 305 300 297 294 295 295 291 290 289 292 290 288 287 289 286 289 290 293 291 292 292 293 291 287 287 292 289 287 289 298 301 299 300 304 306 308 310 312 314 315 315
315 315 316 316 317 317 318 319 319 320 321 322 320 319 318 320 322 327 326 327 325 324 319 311 314 314 302 307 316 310 307 309 312 311 310 311 311 306 302 300 298 297 300 301 302 302 302 302 298 299 298 293 293 293 288 286 285 288 287 286 289 288 288 287 290 292 292 292 290 290 289 289 289 289 288 292 294 297 298 298 301 304 306 308 310 312 313 313
314 314 315 316 316 317 317 318 319 320 321 321 320 318 316 319 324 326 324 324 322 319 315 317 314 309 307 307 304 306 309 307 310 311 308 305 308 305 303 298 294 298 299 298 301 299 299 298 297 294 292 293 294 292 289 284 286 286 285 286 286 286 287 289 290 291 292 292 290 289 287 291 294 294 290 291 292 294 297 298 297 300 302 303 305 308 310 312
313 314 315 315 316 316 317 318 319 320 320 321 322 321 319 320 322 323 318 314 310 304 303 302 305 297 296 302 307 307 310 311 309 309 302 306 305 304 300 297 299 298 295 294 294 296 292 292 295 290 289 290 291 293 291 289 290 289 287 287 286 287 287 287 291 291 294 290 289 288 289 291 293 294 292 291 290 292 292 290 289 292 296 297 299 302 306 309
313 313 313 314 315 316 316 318 319 319 320 317 316 315 313 305 306 308 311 311 308 305 308 307 309 310 303 306 305 307 309 312 306 303 304 305 304 301 299 297 296 295 294 292 291 293 293 290 289 289 291 292 293 293 294 290 293 290 290 289 288 287 287 288 289 291 291 290 288 288 289 291 293 293 291 289 290 289 289 291 292 292 292 295 296 298 301 304
313 313 313 314 314 315 316 317 318 319 319 316 315 308 299 299 294 296 303 307 311 311 309 308 310 307 302 306 306 306 304 301 305 301 304 306 305 303 296 298 293 290 290 291 292 292 294 288 289 292 293 293 292 291 292 290 290 291 289 288 286 287 285 288 291 291 290 290 287 287 287 290 291 292 290 288 289 291 291 291 292 292 291 292 295 297 298 301
312 312 313 314 314 314 316 317 318 318 319 315 313 307 307 307 310 313 311 300 307 309 310 310 312 303 304 306 308 310 306 299 301 302 305 304 303 302 295 294 291 289 288 290 289 288 288 287 289 289 292 292 290 290 290 291 290 289 287 287 285 285 287 289 289 290 290 290 287 284 286 290 292 293 289 288 291 292 293 293 295 294 292 291 292 295 297 297
312 312 312 313 314 314 315 317 317 318 315 311 307 309 308 312 316 316 315 306 303 306 307 308 306 300 301 307 309 311 303 300 297 300 302 303 302 300 294 292 290 289 287 290 288 285 284 287 288 288 290 292 289 288 288 290 291 289 287 285 284 286 287 285 287 289 289 288 287 284 284 288 291 289 289 289 291 292 293 293 293 293 293 293 294 294 295 296
311 312 312 313 314 314 315 316 317 315 310 311 311 309 313 314 316 315 310 299 296 302 305 309 308 300 301 302 307 309 303 301 301 297 304 302 301 297 296 293 289 288 288 289 289 288 285 286 288 288 288 291 289 287 287 289 289 291 289 286 285 286 286 287 286 287 288 287 285 284 284 284 288 291 290 289 289 290 292 290 290 290 293 295 294 293 294 296
310 311 312 313 313 314 314 315 310 309 313 312 311 315 315 316 315 317 306 299 298 297 306 309 306 303 304 306 306 305 300 299 300 302 301 302 294 296 294 293 290 288 289 287 286 287 285 287 288 287 285 288 289 286 287 288 287 289 288 288 287 286 286 287 287 288 287 285 285 287 281 279 282 284 286 289 287 289 291 291 292 292 292 292 292 294 295 295
309 310 312 312 314 314 315 306 305 311 309 306 310 316 316 317 316 314 307 294 286 295 304 296 308 299 310 306 305 300 303 296 299 301 302 301 302 298 292 291 291 287 286 286 286 284 287 286 289 288 286 285 286 287 287 288 287 286 286 289 289 288 287 287 286 287 281 281 285 284 283 274 281 285 286 285 284 288 290 289 292 293 293 292 293 295 295 296
310 310 311 311 313 314 304 297 310 310 302 306 315 317 316 316 315 310 298 286 284 295 295 305 303 301 307 305 305 305 293 294 298 300 299 301 300 297 295 290 287 287 288 287 284 284 285 284 286 287 286 285 284 285 286 289 286 284 287 289 290 288 288 287 287 287 283 284 285 283 281 278 280 287 284 281 283 284 287 288 289 291 292 293 294 295 295 296
310 310 311 312 313 312 305 308 307 305 305 311 316 315 317 315 312 308 295 279 278 302 296 298 304 309 306 305 305 302 296 302 293 295 300 299 297 294 295 289 291 288 287 288 283 286 288 283 285 284 285 285 285 286 286 288 287 284 289 291 289 290 289 289 287 284 284 285 281 280 284 281 276 281 284 283 284 285 286 288 289 291 292 292 293 295 295 296
309 309 310 312 312 313 311 308 307 305 310 316 315 316 316 314 309 300 286 279 293 294 312 298 309 306 302 304 302 299 296 299 294 296 298 298 299 292 289 290 290 289 289 290 287 285 285 288 287 288 286 285 283 287 287 288 286 286 289 292 291 289 288 288 284 285 283 281 280 280 281 277 278 279 282 282 283 282 285 289 290 291 292 292 292 293 294 295
308 309 310 311 310 308 309 309 307 310 314 315 315 315 313 309 300 288 280 275 295 285 302 299 298 295 300 295 297 297 294 298 293 295 297 294 296 295 290 290 290 289 287 287 288 284 285 288 290 287 286 287 286 285 285 288 287 289 290 291 289 286 285 283 283 281 280 276 280 280 280 280 277 281 286 285 284 286 288 287 288 289 290 290 290 291 293 293
308 309 310 311 304 306 308 302 307 313 315 315 314 312 308 301 289 283 278 284 295 294 298 295 293 300 295 292 291 294 295 292 293 295 291 295 293 290 291 289 289 287 284 285 287 286 286 287 287 287 287 287 286 286 286 287 288 291 285 284 288 287 284 284 280 282 277 276 278 278 279 279 276 278 281 285 285 283 287 288 290 291 291 290 290 290 291 291
307 309 310 309 308 311 303 301 309 315 314 314 312 306 300 284 286 280 278 298 284 290 290 291 295 294 294 296 294 291 292 291 293 293 290 291 289 288 290 286 288 281 281 282 283 282 284 285 284 287 288 288 286 286 285 287 289 287 284 286 284 279 281 277 279 276 277 275 281 278 279 279 280 282 283 284 285 286 285 288 291 290 290 290 290 291 291 291
308 309 311 311 311 308 309 310 313 314 314 313 308 303 292 284 276 285 284 288 283 294 291 296 292 294 294 294 291 292 294 289 293 292 292 291 289 287 289 286 289 284 280 284 282 283 281 281 284 286 288 288 289 284 281 281 285 285 285 282 282 277 276 276 273 270 272 277 279 280 280 279 279 281 288 289 293 294 291 288 289 289 290 292 292 292 292 292
308 310 311 311 310 310 311 311 314 315 311 310 304 296 289 282 280 289 286 286 288 296 296 293 293 294 294 290 291 293 289 292 291 290 291 288 288 286 287 286 288 283 282 283 283 283 279 278 285 286 284 287 287 287 287 282 283 285 284 287 282 278 274 273 272 275 276 278 278 280 278 277 278 283 282 289 291 289 288 288 287 288 289 290 290 290 291 293
310 314 312 311 310 311 311 313 315 313 310 305 297 291 281 281 286 283 285 286 291 294 292 296 291 291 290 292 292 294 292 288 292 290 289 288 285 287 286 288 287 285 284 284 281 281 284 282 284 286 286 286 288 287 287 287 286 284 282 284 281 283 280 277 275 273 271 273 275 276 278 279 281 283 286 285 286 288 288 288 286 288 289 289 290 292 293 294
313 312 312 308 307 309 312 314 314 313 308 301 292 286 284 286 281 288 286 293 294 290 291 293 292 289 289 288 291 292 291 291 290 290 287 288 289 287 289 289 286 288 288 285 283 281 282 281 284 284 285 286 287 287 287 288 282 284 283 283 283 284 282 276 275 278 275 273 275 274 278 281 282 287 290 285 284 287 287 287 286 288 288 287 291 293 293 293
308 310 305 307 308 312 313 314 313 311 307 299 290 285 290 288 292 290 294 292 293 294 291 285 287 288 285 284 287 288 288 293 290 289 285 288 286 289 288 288 290 287 290 287 281 281 282 280 283 284 284 286 285 286 286 284 285 285 281 284 284 286 283 280 274 270 273 273 274 274 278 278 279 281 284 284 286 290 287 287 287 285 285 287 291 293 294 294
306 306 306 306 309 313 314 314 313 309 303 296 288 289 290 287 294 294 295 295 295 294 291 289 289 293 286 287 286 288 290 289 288 290 286 289 285 294 290 290 289 291 290 288 288 282 287 279 284 284 284 287 284 287 287 287 286 285 281 285 287 279 279 277 274 271 268 269 268 273 276 277 279 283 283 285 283 286 288 287 284 287 287 288 290 292 292 291
305 303 298 306 312 313 313 314 310 305 298 291 288 288 290 290 295 294 295 296 296 294 290 291 289 291 291 288 289 289 291 288 289 288 286 287 285 290 291 293 288 291 290 290 287 284 286 280 280 284 285 286 286 287 283 284 286 286 286 284 283 282 279 275 278 273 275 272 270 271 274 279 281 281 282 288 285 286 287 285 286 287 288 288 289 291 291 291
302 298 296 309 312 313 314 312 305 301 295 287 288 287 294 290 293 295 297 296 293 293 291 291 293 290 291 291 291 287 291 292 289 289 290 289 286 287 292 294 288 288 291 289 286 289 282 284 277 283 285 284 283 283 284 286 284 283 284 282 284 281 282 280 279 276 276 268 266 268 272 277 280 284 286 290 291 293 290 287 287 288 288 288 288 289 289 289
304 298 297 309 311 313 311 306 298 293 290 291 293 290 292 290 293 294 297 298 296 296 292 293 293 290 291 290 289 291 289 289 290 288 287 285 289 283 291 294 290 288 288 288 288 287 282 282 280 281 281 281 280 281 282 286 288 286 284 282 284 280 278 277 278 278 273 275 272 267 277 278 282 285 290 290 291 291 291 287 287 287 288 288 288 288 288 289
298 291 294 309 311 311 305 294 294 297 291 289 287 291 290 297 293 293 295 297 296 294 295 294 294 293 292 291 291 290 291 288 290 289 284 284 291 284 287 293 291 291 291 288 288 284 284 280 283 277 281 282 284 284 282 283 284 284 284 285 286 283 280 275 275 274 274 274 275 273 270 281 287 286 288 291 289 286 285 285 287 288 287 287 288 289 289 289
296 295 306 309 311 309 301 293 295 291 288 291 296 294 296 294 292 294 293 295 293 291 291 293 293 292 292 292 290 290 291 288 289 288 284 283 286 285 288 292 292 291 292 284 288 286 290 281 279 278 280 282 282 283 284 283 285 285 283 279 282 284 282 279 274 275 278 273 275 273 273 280 285 283 286 284 283 282 283 283 286 286 287 287 287 288 290 292
297 296 299 308 311 308 297 287 285 287 288 291 292 291 293 293 293 292 292 294 293 292 292 292 293 296 292 294 293 290 293 286 288 285 283 284 285 288 290 291 293 291 291 289 290 290 285 280 284 272 273 277 279 281 282 282 284 281 280 281 280 281 278 275 273 275 276 276 278 276 276 279 285 280 282 282 283 284 285 285 285 287 288 286 286 287 289 290
298 301 301 301 307 304 293 293 291 288 287 288 289 287 289 291 294 295 294 293 295 294 293 292 294 295 292 294 292 293 294 290 285 285 283 283 285 287 291 291 294 292 291 291 295 291 280 281 282 276 275 273 272 275 278 280 280 280 279 281 282 284 281 281 279 276 275 279 279 274 280 281 280 283 283 283 284 284 285 285 283 284 285 286 286 287 288 288
295 285 294 296 300 300 298 298 294 291 289 288 286 288 290 289 293 295 296 294 292 295 291 292 291 294 290 291 290 289 290 289 290 283 284 285 284 287 288 292 293 292 293 295 293 291 280 283 285 283 282 280 281 280 283 285 283 283 284 284 285 285 285 285 279 275 280 279 276 283 281 281 283 286 284 285 284 285 286 285 285 285 285 286 285 286 287 288
297 291 291 287 295 296 294 294 292 293 290 292 286 288 287 289 291 292 297 292 290 292 289 293 291 291 289 291 289 289 291 287 287 287 285 286 285 284 288 291 292 292 294 293 293 288 282 282 285 284 285 285 281 280 284 289 285 286 285 284 284 284 283 284 281 282 281 277 279 280 279 280 282 282 283 285 285 283 283 283 284 283 285 287 286 286 290 289
290 292 297 297 288 285 290 290 293 292 293 294 289 290 288 288 289 288 293 292 293 293 290 289 293 293 292 291 290 287 288 286 287 286 287 286 285 286 288 288 289 292 294 291 293 291 285 284 284 283 283 282 280 283 285 286 286 285 285 285 283 284 282 283 284 286 283 283 281 281 282 283 283 284 286 285 285 286 286 287 287 285 284 284 287 288 289 290
292 292 294 297 289 294 292 292 293 293 292 293 289 290 288 288 288 291 291 289 292 291 293 287 290 292 292 293 291 288 288 284 283 287 287 286 287 286 286 286 289 289 291 288 289 286 289 279 283 285 282 282 282 283 285 285 283 283 284 285 286 284 284 285 286 285 284 285 285 282 281 281 282 285 286 287 285 286 286 284 283 285 286 285 286 288 289 290
291 291 288 295 293 294 294 293 293 292 290 291 288 289 289 289 288 291 291 291 288 290 294 291 291 292 292 293 293 289 289 291 290 286 288 288 286 288 286 288 285 285 286 288 289 285 289 280 286 282 279 281 282 283 283 284 283 282 282 284 285 285 285 286 286 285 283 284 285 282 282 284 286 285 286 286 284 283 284 286 287 286 285 286 286 288 289 290
297 298 297 291 288 292 294 293 292 291 289 290 289 289 290 290 289 292 291 294 292 290 292 291 293 292 293 292 292 292 293 293 292 291 290 290 286 289 288 280 287 287 285 286 286 286 284 279 284 283 279 277 280 281 280 280 281 280 281 282 283 283 282 284 283 283 282 284 284 283 283 285 284 286 286 287 287 287 290 290 287 287 286 285 286 288 289 291
296 297 298 295 288 293 291 293 293 292 287 290 290 289 289 289 292 293 288 289 290 294 295 294 293 292 291 291 291 293 294 294 293 292 293 294 293 289 289 289 291 289 286 287 285 285 282 280 279 279 279 276 277 279 279 279 280 278 281 284 284 284 285 286 287 287 287 288 284 283 284 289 289 285 286 285 287 289 290 289 286 286 286 286 288 289 290 291
Wind_Speed
14 15 14 14 14 14 15 13 12 16 23 24 23 23 21 21 20 19 21 22 19 20 20 20 19 17 16 15 14 14 13 6 4 3 4 7 7 7 12 9 9 8 8 6 7 9 5 5 5 0 3 3 3 2 4 2 1 0 1 4 1 3 3 4 4 7 1 3 4 4 7 8 3 2 1 3 5 3 1 1 3 1 2 2 2 1 11 11
12 11 14 15 14 15 15 14 11 13 16 25 25 23 22 21 22 20 20 21 19 21 20 19 18 17 16 15 16 16 9 5 7 5 12 3 9 12 9 11 10 11 7 7 7 6 10 3 3 4 5 3 3 1 3 1 0 1 1 2 7 4 4 5 2 4 1 2 3 5 6 9 8 9 3 4 2 2 2 1 2 1 3 4 3 9 13 12
12 12 12 14 14 15 15 14 13 12 13 21 26 23 23 22 20 20 19 20 19 20 19 20 18 17 16 16 17 14 8 3 3 6 11 8 10 12 11 14 13 10 6 6 3 8 9 10 7 6 2 4 5 1 3 2 2 1 3 3 4 7 4 4 3 2 5 1 1 4 5 5 5 5 3 4 7 3 8 6 1 3 1 4 5 9 12 12
12 12 12 12 14 14 14 13 13 10 10 17 23 25 25 23 23 20 18 19 19 20 20 18 19 18 16 18 16 8 7 4 4 4 4 10 9 12 11 13 12 7 6 5 5 5 6 6 5 6 3 5 1 1 1 2 2 1 1 2 2 2 1 2 4 4 3 4 1 2 1 3 4 4 5 5 7 6 6 6 10 11 7 8 11 12 11 13
12 12 12 13 14 15 15 13 13 10 9 11 25 25 24 22 22 22 19 18 19 20 20 19 18 18 18 18 16 7 8 2 6 8 7 15 13 12 15 12 11 6 8 7 10 7 6 6 4 4 3 2 1 2 1 3 1 1 1 6 4 1 1 5 2 3 2 5 4 3 7 7 2 1 5 12 10 9 13 11 6 7 12 13 13 13 11 13
12 12 12 13 14 14 15 14 13 12 13 11 14 23 25 26 22 22 21 18 18 20 20 20 19 19 19 19 10 5 10 8 2 3 14 18 17 16 15 13 11 9 11 7 5 5 9 1 6 2 1 2 4 6 1 1 1 0 1 4 4 4 3 3 1 1 1 2 5 6 5 3 7 3 4 10 13 2 1 5 8 11 16 17 16 14 13 14
10 11 11 11 11 13 14 15 14 12 13 13 14 18 24 25 25 23 23 20 18 17 20 20 20 19 19 13 4 6 10 3 0 4 8 21 18 17 16 13 13 10 10 9 8 5 3 5 3 3 4 2 0 2 3 1 1 5 5 3 6 5 7 7 5 4 0 7 4 2 1 6 5 6 1 6 5 2 3 3 7 5 5 8 13 15 18 17
10 10 10 10 11 11 12 13 13 13 12 14 16 19 21 25 25 25 24 23 19 17 17 20 20 19 18 7 7 5 5 5 3 4 10 18 18 17 14 9 11 9 10 13 11 8 5 7 6 2 2 8 3 7 1 1 1 3 1 2 7 6 5 8 5 4 1 3 2 5 3 3 0 1 3 9 8 2 2 5 8 7 8 9 12 15 14 14
11 9 10 10 11 10 9 12 14 13 12 12 16 18 23 23 25 26 25 23 22 19 17 17 20 19 17 8 7 8 8 3 3 6 11 10 11 14 15 7 9 12 10 9 11 12 9 5 4 8 6 5 1 4 1 4 2 1 2 1 6 8 10 8 6 4 3 1 3 4 2 2 1 3 2 8 5 1 2 6 9 8 9 11 12 14 14 13
12 11 10 10 11 10 10 10 12 15 14 11 13 17 22 28 26 26 25 23 23 21 20 19 18 20 8 6 5 10 5 7 3 8 14 12 9 12 12 11 9 10 8 8 7 10 10 8 10 3 8 4 1 1 0 1 2 0 3 3 4 10 8 4 1 3 2 1 1 6 2 0 2 3 8 1 4 6 5 7 7 11 12 12 10 11 11 13
13 13 12 12 11 12 11 11 11 13 15 13 12 14 17 26 26 26 26 26 26 25 23 22 21 14 7 7 12 10 2 8 2 7 14 16 14 11 9 11 11 10 11 5 8 12 5 8 6 5 1 3 4 1 1 2 4 1 7 6 4 7 5 6 4 6 1 0 0 4 1 1 1 1 8 2 3 7 9 6 8 9 11 11 11 11 10 11
14 13 13 13 12 12 14 12 12 11 13 13 12 12 18 20 24 27 26 25 25 24 22 22 23 10 3 8 8 6 4 3 7 9 11 15 14 15 9 11 8 9 11 10 7 4 6 9 11 5 4 5 3 1 3 3 2 2 8 6 9 10 8 3 2 3 2 1 2 1 1 1 0 6 5 3 2 5 8 9 9 10 8 9 9 9 8 11
13 14 13 14 14 13 13 14 14 13 15 15 13 11 14 20 19 23 25 24 24 24 25 21 15 3 8 9 6 2 0 6 10 12 10 7 6 4 5 6 6 9 11 12 9 5 6 9 10 4 4 7 7 3 2 5 1 1 4 3 8 7 9 6 0 2 1 1 1 1 4 6 8 14 1 2 5 5 5 6 8 8 8 7 7 8 9 6
12 13 13 13 15 13 13 15 15 14 13 15 14 11 10 14 20 21 25 24 25 24 22 22 10 2 6 3 1 2 2 6 10 13 11 8 13 5 5 3 3 3 1 4 4 4 7 1 4 6 1 5 5 3 7 2 2 3 1 4 1 3 5 3 1 0 3 0 0 2 4 7 9 8 4 1 4 8 7 6 8 7 7 7 8 8 9 10
14 13 13 14 15 14 14 15 16 15 13 16 15 15 13 12 22 21 21 21 24 23 20 16 2 5 5 2 1 1 8 7 12 10 10 13 12 5 6 3 3 3 3 6 5 3 5 4 9 4 3 1 7 4 4 3 1 1 2 5 1 4 5 6 1 3 6 0 2 4 3 9 9 6 3 3 5 5 8 8 8 8 8 8 8 9 9 11
15 14 14 15 16 16 15 16 17 16 14 15 16 15 14 15 19 26 25 20 23 23 16 13 6 3 4 5 2 7 4 6 7 8 4 15 15 12 8 5 4 5 6 2 3 4 4 3 4 5 4 2 5 6 4 4 1 2 4 1 8 2 6 7 2 4 3 1 1 3 5 3 7 3 3 1 6 7 6 6 7 9 9 8 9 9 9 8
15 15 15 15 16 17 17 17 17 17 15 15 17 18 15 14 20 26 26 25 18 13 15 9 9 4 9 1 3 6 4 2 6 3 5 2 8 14 12 9 4 4 6 5 4 6 2 2 1 2 0 5 4 7 6 4 3 6 1 3 4 7 4 5 3 2 2 2 4 1 3 7 3 2 4 0 5 5 7 8 8 8 8 8 7 8 9 9
16 17 16 15 18 18 18 18 18 18 15 14 15 13 14 16 21 27 21 18 9 9 5 4 6 7 4 2 8 10 4 6 7 9 7 1 7 15 15 6 4 9 7 4 1 6 2 4 1 5 3 5 7 7 10 10 9 8 4 4 3 1 5 5 3 2 7 1 4 2 5 12 12 8 4 1 4 5 10 7 5 6 7 6 6 8 9 10
18 18 17 17 18 19 19 19 20 19 16 14 16 15 14 14 13 16 16 14 14 8 11 13 13 12 6 18 11 7 8 10 9 13 4 8 3 6 6 5 10 12 6 5 2 5 1 3 2 3 10 8 9 10 7 4 8 10 5 5 3 8 7 4 6 2 8 6 6 6 9 12 15 14 4 1 3 7 7 4 5 6 6 5 7 8 8 10
18 18 19 19 19 19 20 21 21 21 18 12 12 9 4 4 10 7 9 18 21 17 7 20 19 11 6 6 8 4 9 11 11 2 7 4 12 8 7 6 4 4 8 9 5 5 4 9 12 13 11 12 11 11 7 5 9 5 4 4 7 3 5 3 4 2 1 1 7 7 8 10 12 10 3 1 0 3 5 8 10 8 7 8 8 9 12 11
19 18 19 19 20 21 20 23 23 22 21 12 12 14 11 16 18 10 15 9 9 5 9 21 21 9 2 8 11 18 15 5 4 5 10 3 11 15 5 8 6 7 6 5 9 0 4 8 11 7 6 9 7 4 5 3 5 11 6 4 6 2 4 3 1 2 4 4 3 2 4 11 13 12 6 1 2 7 9 10 10 11 9 7 8 11 12 15
20 20 19 20 20 22 21 24 24 23 21 12 14 14 10 21 8 4 11 12 9 6 10 24 18 3 2 9 7 10 9 7 9 5 1 6 14 14 5 7 9 11 4 6 4 4 8 12 5 3 5 7 5 4 4 7 4 3 5 3 1 5 2 7 3 1 2 2 8 1 5 11 14 13 4 5 6 6 8 10 13 12 8 8 9 11 12 7
20 20 22 21 22 23 22 25 24 23 13 15 16 17 16 11 1 3 6 5 15 9 12 18 19 6 8 11 11 14 15 11 12 12 13 8 14 7 10 10 9 8 5 8 11 7 6 7 6 4 4 8 4 4 5 6 5 5 4 4 5 2 2 5 2 0 1 2 2 1 5 9 10 6 7 8 8 7 8 9 10 7 11 12 15 14 10 11
21 21 22 23 22 26 22 25 24 18 17 17 18 22 8 8 7 4 4 6 6 3 2 15 15 6 14 15 6 16 20 10 14 17 9 8 16 9 11 15 14 8 12 12 12 14 8 3 7 7 6 9 9 5 7 9 10 6 5 3 3 2 3 5 3 2 1 1 2 1 3 6 8 10 6 5 7 5 6 4 6 6 8 10 5 4 8 13
22 21 23 23 24 26 22 23 17 17 16 18 20 15 7 6 1 14 4 3 2 0 0 7 1 3 8 4 6 9 3 4 3 9 9 10 9 10 7 1 7 12 11 7 6 6 3 5 7 9 6 7 7 8 8 7 8 8 4 7 6 4 5 2 2 0 1 3 3 2 3 5 5 6 8 5 1 5 7 6 10 10 8 6 9 13 11 10
23 25 24 24 22 24 20 17 17 16 18 19 17 12 10 8 4 3 5 5 8 4 7 14 4 11 4 2 7 6 11 6 3 9 10 7 5 8 5 4 2 11 7 8 8 3 6 1 12 11 9 7 8 9 7 7 7 7 7 8 7 6 3 1 1 2 2 3 3 1 9 6 5 5 5 4 2 9 5 3 10 9 8 8 11 13 13 14
27 27 27 27 26 24 15 13 12 14 18 19 16 14 8 13 4 2 7 3 9 10 20 8 8 6 6 12 11 17 15 9 1 7 7 6 12 3 18 9 4 3 4 4 2 7 3 3 6 7 9 10 6 10 7 11 7 7 2 8 7 4 5 6 5 7 5 1 3 2 1 4 5 9 3 3 2 6 7 7 10 11 10 10 12 13 13 13
30 29 29 29 28 27 15 10 13 21 22 11 11 14 13 11 7 2 2 8 9 14 11 8 3 2 7 7 10 11 2 22 11 10 8 8 5 1 5 13 13 13 4 4 14 2 9 5 8 7 7 9 12 5 4 9 8 3 2 7 4 7 8 5 6 6 2 1 8 1 0 1 5 8 4 0 3 6 8 9 9 11 12 12 12 13 13 14
32 31 31 27 26 32 22 16 13 22 20 12 14 15 14 14 8 8 4 5 1 5 4 13 4 10 9 6 7 5 5 12 9 11 3 3 1 4 6 10 8 12 8 10 10 1 1 9 13 13 9 11 4 6 8 11 7 5 4 7 6 5 4 3 4 4 1 1 9 4 2 3 8 5 5 2 1 5 7 10 10 11 11 9 10 11 12 9
37 34 33 29 23 23 21 16 19 19 13 14 18 15 16 19 9 11 8 7 4 8 10 4 10 15 20 15 8 2 10 4 4 5 6 6 2 4 1 5 9 11 6 1 2 6 2 4 4 4 9 6 6 1 4 10 6 3 6 4 3 5 2 3 4 3 2 6 8 3 2 1 7 6 9 6 6 7 8 7 7 8 8 6 8 9 9 9
39 39 37 33 22 17 17 21 22 16 14 12 19 19 14 14 14 12 12 1 5 1 7 15 12 20 23 22 13 3 5 7 13 17 11 2 2 3 8 6 3 6 3 4 5 1 1 1 4 2 3 4 3 3 4 1 2 8 2 3 3 1 3 2 1 2 4 8 2 1 2 3 9 4 5 7 4 4 6 7 10 10 9 6 5 6 7 8
41 40 39 28 24 18 25 25 23 15 18 18 22 18 17 14 1 16 8 6 12 12 14 14 16 18 21 15 14 13 13 9 13 18 18 14 13 14 15 14 14 12 10 12 13 2 2 4 2 2 3 9 5 5 1 1 1 4 5 6 7 2 2 4 1 6 9 5 0 0 2 1 13 5 5 6 9 6 7 11 12 9 10 8 7 7 6 6
40 36 36 32 31 22 26 21 19 18 22 25 18 17 12 13 15 5 8 14 3 13 9 19 23 25 23 20 14 10 3 14 14 17 16 10 11 7 6 5 8 5 12 13 9 8 4 1 0 2 2 4 9 10 4 3 4 7 8 7 8 5 7 10 3 1 4 5 3 0 0 6 2 5 12 12 15 15 11 8 9 10 12 12 10 8 7 6
40 36 26 32 29 25 26 22 18 25 28 24 19 15 8 11 10 6 13 6 10 9 22 20 20 20 27 19 19 14 9 6 19 13 16 10 10 11 8 5 12 6 6 8 11 12 9 4 10 10 4 3 5 7 10 6 4 7 3 8 6 3 4 6 3 9 8 7 1 3 1 7 4 5 3 12 9 7 6 6 5 7 9 10 9 8 9 9
39 29 28 27 27 29 28 23 24 31 24 23 19 18 20 10 5 14 11 6 6 14 16 14 23 23 13 8 9 11 2 9 12 16 13 17 14 12 16 14 8 6 4 13 4 3 17 5 3 2 1 4 9 2 5 8 5 5 4 4 5 10 5 4 5 3 2 1 2 2 6 3 4 3 7 5 8 9 6 9 5 9 7 5 7 8 9 8
28 24 27 21 25 23 24 20 26 29 25 24 21 16 20 8 9 6 10 8 12 16 17 20 15 16 14 11 8 14 5 10 12 11 9 14 15 16 13 7 11 10 14 13 6 9 4 6 0 5 2 3 5 4 4 6 8 5 5 11 7 2 6 5 3 0 1 3 9 2 6 6 7 7 9 2 3 9 6 7 5 9 6 4 7 9 7 7
21 23 24 25 24 25 24 25 24 24 21 23 20 16 9 1 6 15 10 20 20 26 26 22 14 16 12 8 10 10 3 7 14 10 11 7 7 9 11 5 9 7 10 10 1 1 11 3 2 3 2 1 0 0 1 3 3 7 7 9 2 2 5 5 6 1 1 6 7 2 7 4 1 9 3 4 7 12 7 6 7 6 5 6 9 9 9 8
18 18 20 27 23 26 26 27 29 22 20 23 21 11 4 10 6 8 10 16 15 19 22 21 14 22 16 18 16 16 13 17 15 10 11 14 6 17 18 13 11 15 12 4 9 4 8 4 0 1 1 1 2 1 2 1 1 5 5 4 8 5 6 2 3 4 3 5 4 2 2 5 8 8 3 2 4 8 10 7 4 6 5 7 8 10 8 5
18 20 18 21 25 27 26 29 25 22 20 18 16 11 6 2 13 10 18 13 14 18 17 13 17 13 20 20 21 21 25 19 22 17 16 11 11 12 19 14 12 15 13 9 6 4 1 7 1 1 3 1 1 3 12 5 2 1 2 3 1 3 1 4 7 3 4 6 0 9 1 11 7 6 7 6 6 9 8 6 6 7 7 6 7 8 7 6
18 13 11 21 25 26 27 27 20 20 18 18 15 6 7 10 14 13 18 23 15 17 14 19 18 20 21 18 22 18 15 14 23 15 15 12 9 2 23 11 9 10 15 7 4 5 3 2 6 1 2 2 4 4 10 11 9 2 3 4 1 0 2 4 1 4 5 4 3 2 7 7 7 8 9 10 11 11 9 9 7 7 7 7 7 7 7 6
11 9 7 21 27 26 26 21 17 22 18 7 8 7 14 13 14 11 15 16 10 4 5 15 19 18 20 18 14 11 7 11 15 12 6 4 12 7 11 17 13 15 6 5 7 6 4 2 10 4 3 6 4 1 3 9 9 9 8 7 8 7 4 7 10 3 1 2 5 2 14 5 5 4 11 11 10 12 12 3 5 6 7 7 6 5 5 7
13 13 11 22 26 31 27 22 10 11 8 17 14 11 10 14 13 16 15 12 8 8 1 5 11 11 15 18 26 22 17 14 15 11 5 8 14 1 5 13 13 17 17 14 13 2 6 3 9 6 6 6 2 1 1 0 1 2 6 9 9 5 6 4 7 5 2 2 4 2 1 15 8 8 10 12 9 4 2 3 6 6 7 6 6 5 6 6
11 7 14 27 24 30 25 19 11 13 9 8 14 8 10 10 14 17 19 14 11 2 2 6 12 9 6 9 9 10 13 6 14 13 4 2 4 1 7 18 18 16 12 3 8 5 7 5 6 2 2 3 2 2 1 1 1 1 2 2 5 10 7 7 5 5 8 2 1 1 4 8 1 1 7 4 1 2 3 3 6 7 7 5 5 5 5 5
6 16 19 21 25 23 25 21 18 15 7 7 11 9 4 8 16 19 16 19 11 10 10 9 10 12 15 12 18 21 20 10 7 5 1 1 4 2 14 16 25 13 15 13 17 10 6 3 10 4 3 2 4 3 4 1 1 2 2 2 2 4 4 2 5 1 1 8 8 6 15 9 2 3 1 1 2 4 5 5 7 8 7 4 4 4 4 3
9 9 11 17 22 18 19 8 14 10 14 15 14 16 16 7 13 20 21 20 12 13 10 9 14 16 7 12 14 11 15 4 8 3 4 3 2 0 14 20 21 15 5 6 10 7 3 4 8 9 13 14 11 15 18 16 9 2 0 3 3 7 6 3 3 2 4 8 11 6 13 2 4 2 2 1 3 5 7 7 4 6 6 8 5 5 4 3
11 14 13 15 19 15 7 4 16 17 17 15 14 10 15 13 10 14 18 17 5 11 3 5 5 10 6 12 13 13 13 4 13 5 6 6 2 1 7 18 16 8 8 16 15 9 4 4 6 8 12 14 10 4 5 15 5 7 9 12 11 7 10 8 3 4 17 7 7 17 5 1 1 0 1 4 5 7 6 3 3 5 6 6 5 6 5 4
7 10 14 15 14 17 16 9 14 18 19 18 13 9 15 16 13 11 15 11 6 6 3 7 8 15 11 19 13 13 17 7 7 13 5 7 1 2 3 11 9 9 18 12 17 7 5 3 11 11 13 9 5 4 6 16 14 16 11 10 8 9 8 10 10 21 5 9 14 3 4 5 6 4 6 6 6 5 4 4 6 5 5 5 4 4 5 4
10 4 11 4 2 19 22 14 11 13 15 22 14 15 20 18 16 14 10 2 8 6 10 2 13 15 24 26 23 16 14 7 12 15 11 6 7 4 8 2 5 11 17 7 13 10 7 10 7 5 6 2 2 9 11 9 11 10 13 12 11 11 9 17 23 15 6 11 17 7 10 10 7 7 7 8 4 1 3 3 2 2 3 4 4 4 5 6
3 3 4 4 6 13 11 11 11 12 22 14 8 15 18 22 23 18 16 8 10 9 11 13 22 22 23 18 17 13 19 13 10 10 14 14 18 16 11 3 3 5 9 5 8 1 8 4 6 11 7 4 2 8 9 10 3 5 11 14 18 15 21 24 22 11 11 13 11 4 6 7 3 8 8 8 5 5 4 4 3 3 1 2 3 5 6 7
8 12 7 4 1 21 22 20 15 13 17 14 16 14 16 20 21 14 8 15 18 18 17 17 25 26 26 27 25 22 26 30 33 28 22 25 14 15 15 13 9 2 1 14 9 2 8 6 9 4 4 3 1 2 4 7 9 6 7 12 17 21 22 22 17 12 8 12 10 5 8 14 7 6 8 6 3 4 5 6 5 3 3 4 5 7 8 8
6 7 10 9 13 14 19 19 17 18 14 10 14 14 15 22 22 21 16 16 25 21 20 26 26 24 23 25 25 27 32 30 20 22 18 26 23 15 15 4 10 15 5 4 2 1 4 1 1 5 7 3 0 5 3 4 1 3 8 14 19 20 16 13 10 6 6 15 10 8 15 19 2 9 4 1 3 5 9 8 5 5 5 4 5 8 8 9
5 4 6 11 9 11 15 14 13 15 14 11 10 16 14 23 18 17 8 4 2 10 19 21 17 16 17 24 30 30 22 16 14 10 15 11 10 6 5 12 14 14 7 7 1 6 4 5 6 5 7 4 1 5 7 8 4 4 12 25 19 10 14 9 13 14 19 16 12 16 20 14 11 3 3 5 7 10 11 8 5 7 7 6 8 9 9 8
Wind_Direction
227 228 218 216 218 211 220 233 238 240 211 185 184 184 185 182 189 192 188 187 181 177 180 179 176 175 169 163 153 146 135 127 142 157 185 232 178 174 166 142 142 140 133 106 111 88 52 68 67 12 35 47 338 332 313 348 14 46 159 116 191 201 149 212 175 187 216 146 211 200 194 147 185 197 197 70 32 43 14 83 315 342 353 243 274 191 136 133
232 227 229 222 221 220 218 221 231 236 227 191 183 183 184 187 183 191 191 188 179 181 178 175 173 169 165 160 150 149 128 123 162 174 207 209 163 160 159 146 144 150 121 106 115 109 115 93 121 128 105 52 326 159 328 298 348 102 133 107 219 172 237 160 192 192 139 271 248 200 187 171 201 148 204 127 219 153 125 292 357 322 353 40 77 139 128 141
230 230 230 223 219 221 218 215 228 235 230 211 182 182 181 188 188 187 192 186 181 180 178 173 169 168 164 155 155 154 117 76 112 213 231 232 164 156 159 155 151 161 145 146 173 138 145 158 154 109 36 99 4 299 16 286 9 237 125 228 254 210 249 218 194 216 203 148 227 201 224 177 201 157 138 176 176 198 187 185 316 208 192 132 141 150 141 148
230 230 228 226 226 227 226 221 222 218 228 220 190 178 181 182 184 185 189 190 184 178 177 175 168 164 161 160 156 154 95 86 225 233 240 185 173 156 158 155 150 133 82 79 126 95 102 101 93 93 90 83 290 351 54 317 54 266 105 176 240 213 285 260 178 222 221 179 181 229 39 164 200 179 155 147 125 235 246 227 176 192 169 159 163 162 155 157
231 232 229 228 225 226 228 225 221 206 215 228 202 184 179 184 182 180 182 193 188 179 175 172 169 163 163 164 167 137 111 100 250 204 186 166 172 158 160 148 136 137 121 123 83 86 106 121 100 48 87 120 358 28 353 337 345 350 199 304 286 313 243 261 216 185 233 201 150 122 154 210 111 53 146 155 174 207 209 209 219 166 163 157 166 172 166 167
233 227 232 229 226 225 228 227 216 209 208 204 234 197 182 181 184 180 177 191 190 178 174 170 167 166 164 168 159 158 149 187 234 207 173 164 168 164 155 144 135 126 121 118 115 128 109 66 112 111 59 95 182 144 234 257 318 101 342 273 327 258 262 279 356 281 191 121 156 163 218 88 159 198 196 177 196 229 309 165 178 171 170 170 162 161 174 175
234 232 226 231 225 224 228 229 224 217 205 201 209 233 188 186 183 181 179 182 186 181 172 170 168 166 167 150 165 175 192 250 197 269 182 159 164 159 151 138 133 129 126 113 122 134 151 127 95 156 112 74 195 134 186 288 291 106 221 329 315 14 288 292 323 342 130 145 196 196 36 164 161 189 179 201 227 283 312 181 151 150 137 144 155 175 176 182
235 232 234 224 225 217 223 229 229 224 214 202 203 218 216 185 186 183 181 179 175 179 176 170 169 167 153 150 147 194 195 238 208 283 174 159 157 152 136 136 137 140 135 147 144 146 146 138 149 100 91 173 201 148 235 86 326 100 329 339 306 325 286 294 307 318 2 218 185 108 139 233 242 231 89 233 226 316 27 114 120 135 146 164 170 177 185 187
236 228 234 221 228 222 225 228 228 227 218 214 206 209 213 199 189 183 182 178 176 174 177 174 171 167 171 151 161 145 217 216 183 172 133 145 140 136 133 138 155 152 161 152 158 155 140 213 140 181 206 202 142 139 204 155 298 71 172 276 305 309 314 302 312 298 20 338 161 112 190 312 190 286 238 237 222 206 133 121 130 140 155 173 185 183 183 190
230 230 229 231 222 229 226 234 227 231 226 214 218 215 207 203 188 180 177 176 171 173 171 178 176 172 173 132 121 186 229 141 104 142 133 124 121 136 152 148 163 148 136 169 149 152 177 189 168 147 104 38 112 169 352 152 160 228 321 335 312 297 324 341 339 297 320 117 247 168 174 171 324 94 267 249 172 125 124 143 152 153 174 183 184 192 194 190
234 229 227 234 218 227 227 230 231 230 235 223 215 220 213 206 187 179 174 172 171 171 172 179 177 172 167 158 160 197 257 112 168 139 136 136 137 148 164 156 164 154 157 155 166 179 163 129 122 119 355 199 102 302 233 188 171 52 2 335 329 337 306 258 316 291 311 38 142 136 135 217 297 79 230 250 160 151 142 157 169 179 178 185 192 192 197 202
238 235 229 233 231 224 231 229 231 220 235 229 218 212 216 215 189 178 173 171 172 165 168 175 185 175 147 167 181 194 206 150 143 134 133 138 156 169 158 159 161 157 153 165 194 192 144 154 138 140 178 127 114 145 279 154 69 46 55 15 318 342 335 293 203 297 315 262 140 157 104 316 308 233 240 246 138 142 151 169 180 188 191 192 193 195 199 208
242 239 234 234 235 225 227 230 227 221 223 226 219 210 215 212 198 183 173 169 167 169 170 177 187 264 146 179 215 269 296 136 133 132 139 134 85 57 130 154 157 162 170 166 178 192 160 150 153 118 163 129 150 155 178 107 8 26 51 103 339 351 324 293 123 315 280 252 112 101 215 263 241 234 122 103 135 110 134 181 191 196 194 197 196 199 210 211
237 238 236 234 241 231 224 229 230 224 213 217 216 199 203 219 202 186 173 167 169 166 169 167 172 282 184 195 258 300 144 112 119 128 146 143 125 114 99 56 78 98 35 149 127 145 150 141 110 111 170 124 156 145 97 69 48 99 209 65 204 348 266 293 150 289 175 272 272 91 213 271 250 261 266 185 159 158 170 194 202 202 201 198 201 205 211 215
237 231 230 232 238 238 227 227 234 231 216 204 206 217 204 218 208 189 173 165 166 160 163 161 126 138 212 244 337 310 115 114 133 158 153 140 128 103 142 97 76 77 118 133 144 156 134 115 108 109 165 316 108 110 84 122 123 182 118 226 301 196 285 291 96 177 180 271 355 110 264 245 257 269 273 253 174 177 187 194 203 205 204 204 203 210 215 220
239 236 228 229 234 237 231 226 232 234 222 199 194 207 207 215 228 188 175 167 163 158 151 158 200 243 151 196 202 150 116 140 184 158 187 142 146 156 149 103 107 80 100 24 84 116 157 150 149 175 122 46 133 114 112 84 238 255 192 81 203 179 266 326 239 203 195 119 345 162 214 302 297 271 303 261 183 188 199 206 205 211 212 207 209 212 218 227
239 236 233 229 229 232 231 228 227 231 226 209 199 201 205 214 226 196 174 163 159 153 156 164 175 190 187 335 90 173 187 178 123 119 131 166 144 135 124 120 119 94 66 71 96 116 149 154 330 93 353 143 163 138 125 196 170 220 65 201 182 209 236 243 304 230 199 154 205 266 211 238 225 268 311 7 185 182 212 218 215 216 217 214 213 218 222 224
237 239 235 229 230 228 229 228 227 226 222 211 200 187 199 215 224 191 167 156 137 140 114 13 138 145 235 186 175 204 150 119 153 143 124 133 136 146 144 140 103 115 106 81 1 138 196 180 198 191 152 165 167 173 169 199 177 176 162 191 228 228 223 238 206 241 138 275 189 207 228 258 266 271 267 260 161 195 220 224 228 224 228 228 223 223 229 230
240 239 238 234 233 228 227 227 226 222 218 207 199 188 197 214 231 187 155 143 140 153 173 174 169 200 158 195 203 117 155 148 114 132 149 118 149 125 75 82 125 125 124 119 232 135 35 76 55 133 187 177 186 187 186 152 153 177 160 169 183 195 225 214 243 270 181 176 221 190 203 241 254 263 257 155 166 189 239 288 271 235 229 231 226 230 231 233
244 240 239 238 237 232 225 225 224 221 211 203 203 184 152 190 229 218 139 163 178 178 129 150 179 178 19 153 151 124 95 120 121 342 121 132 125 135 106 122 85 74 136 163 173 204 132 164 188 195 185 183 182 190 173 173 163 169 174 177 221 228 277 285 291 283 287 108 227 210 223 238 252 253 272 253 98 191 214 236 241 240 224 220 226 227 229 231
244 240 239 238 236 238 225 225 223 221 208 201 190 180 193 188 215 247 147 179 171 200 170 164 174 160 160 155 157 138 131 23 78 135 150 167 138 136 170 127 141 141 174 152 153 235 121 187 208 188 182 177 174 157 174 156 174 182 180 164 225 171 251 246 281 350 315 173 279 249 238 261 258 266 251 279 151 232 213 224 239 240 226 224 225 235 232 232
247 240 237 235 234 239 229 224 221 219 207 197 202 201 199 201 185 283 166 169 192 188 177 165 169 105 95 105 132 121 77 78 80 117 210 158 166 155 223 147 160 160 146 122 78 135 191 205 183 190 159 141 146 149 178 190 199 181 182 179 220 262 249 286 224 244 312 155 261 118 204 252 257 255 241 182 207 234 222 210 223 222 229 231 231 238 241 249
250 244 240 235 231 240 231 224 219 212 205 203 204 209 213 204 149 170 323 115 167 180 179 166 172 151 125 141 162 138 132 158 164 181 179 177 161 179 153 143 158 144 132 163 166 146 185 238 215 191 139 140 156 161 173 197 227 188 182 174 213 230 166 279 306 35 341 156 290 212 209 272 274 268 251 227 205 231 229 220 232 202 215 224 226 222 228 234
253 246 240 235 231 238 232 223 216 212 212 209 210 211 189 111 147 132 231 163 154 25 195 183 154 149 145 149 188 160 161 174 151 181 173 176 166 149 151 162 144 143 174 176 168 174 185 205 181 157 163 158 178 195 173 188 214 214 177 169 196 172 221 186 262 341 292 306 98 58 348 302 264 269 281 256 232 276 271 258 257 247 233 236 267 291 226 230
258 252 243 235 231 233 232 217 213 212 204 208 222 214 182 125 249 174 188 63 46 118 278 167 264 128 155 25 167 164 161 85 168 163 161 165 136 138 173 115 136 178 164 160 125 156 244 249 125 148 169 174 178 201 203 174 209 223 217 181 203 191 209 265 328 345 334 304 265 177 323 280 277 270 243 266 17 235 249 240 251 238 235 240 244 242 244 241
258 252 242 235 226 227 220 218 212 204 203 215 209 190 165 142 153 235 203 202 174 158 141 198 164 196 152 150 146 138 135 155 167 152 155 177 155 138 117 167 157 169 141 138 157 183 194 185 155 171 168 183 184 195 209 167 199 203 247 180 204 199 191 161 161 97 289 233 292 25 199 268 322 287 242 262 297 258 280 256 258 253 236 224 232 236 235 234
254 248 241 232 226 224 208 220 197 188 206 216 203 174 170 151 133 270 182 265 198 187 166 132 161 144 169 181 159 139 178 190 76 135 151 188 159 216 152 171 69 54 136 145 69 237 127 111 167 159 168 180 179 197 214 177 162 223 233 169 190 176 189 213 180 184 232 264 296 46 143 206 277 274 278 301 306 280 288 268 258 256 243 231 230 234 235 236
253 248 241 232 222 223 218 210 185 196 211 185 149 165 165 141 97 3 262 178 218 127 175 157 218 61 109 183 190 168 5 134 132 201 185 173 113 113 150 167 169 158 167 129 188 319 148 169 173 170 177 181 202 183 168 171 175 217 165 140 154 182 208 189 169 195 223 14 279 323 234 253 246 265 306 347 278 275 265 261 259 254 244 237 237 238 237 233
255 251 245 233 219 224 217 215 188 205 199 158 149 151 159 141 146 221 229 211 133 107 87 118 137 110 100 71 177 4 137 157 136 165 131 122 353 145 159 179 135 143 167 175 176 197 311 173 188 169 166 202 191 190 169 163 170 262 123 78 70 67 63 136 176 164 252 195 247 236 186 218 275 271 304 343 249 270 260 258 252 246 247 241 242 248 250 257
255 252 245 232 223 225 219 208 216 206 157 161 150 144 146 143 160 214 192 222 150 156 176 128 162 157 145 151 159 326 156 155 71 105 151 152 204 41 62 132 125 135 171 356 171 203 183 332 145 134 194 176 176 209 170 174 176 118 113 88 50 42 65 38 71 107 71 246 245 218 289 165 286 236 213 189 217 197 239 279 276 269 261 261 253 255 261 259
257 254 244 232 219 213 192 205 210 181 153 150 140 142 147 159 194 193 207 164 100 114 114 161 146 149 157 152 163 241 160 130 137 143 153 153 138 73 132 72 37 87 90 162 210 228 46 62 138 222 119 80 110 96 9 341 135 132 118 124 111 245 22 44 344 48 195 255 278 232 181 150 222 300 274 240 274 228 214 231 253 260 270 259 255 253 253 256
262 254 249 230 205 191 195 198 190 153 158 152 148 158 169 179 199 207 169 159 169 176 147 133 142 149 153 161 147 178 157 132 152 156 159 177 164 161 179 168 163 154 183 181 201 68 113 159 247 329 236 144 140 121 332 78 169 122 109 130 161 234 129 248 91 223 218 210 214 96 158 350 244 223 255 271 254 272 222 220 237 251 269 275 273 264 256 256
264 262 245 205 191 191 196 194 161 160 150 158 165 165 191 177 200 146 135 167 241 158 159 148 155 156 163 152 166 164 182 153 164 164 159 167 161 183 183 153 185 148 182 181 134 147 250 288 190 251 42 241 150 159 177 135 217 152 162 166 163 169 176 217 232 346 336 288 279 271 193 268 259 281 234 245 256 238 245 231 240 245 254 269 275 283 293 281
273 259 201 187 184 184 191 176 159 151 160 163 173 174 186 203 186 99 146 205 155 157 148 158 152 152 159 167 166 157 143 177 165 165 158 153 165 174 212 246 185 150 86 141 159 179 154 207 234 155 210 155 168 178 167 157 125 203 114 158 187 139 164 206 176 215 221 210 225 266 108 234 125 249 234 233 259 316 283 261 253 255 259 266 276 288 281 277
264 199 178 175 179 185 176 162 161 159 158 171 182 190 190 179 121 154 162 163 167 144 145 141 144 144 165 148 150 168 89 155 180 151 169 160 183 182 184 194 198 120 140 138 255 119 198 183 323 18 86 138 168 221 135 112 134 207 174 79 152 220 134 173 207 146 198 233 273 216 209 186 185 245 276 229 265 277 271 275 268 269 260 262 286 273 262 257
194 178 170 176 177 177 162 155 156 162 167 175 189 189 193 167 153 172 165 163 148 146 136 130 140 148 155 148 153 170 285 147 179 155 175 186 183 186 189 180 178 175 164 170 157 172 135 222 332 329 89 136 173 133 182 159 182 213 111 205 215 141 108 81 56 102 118 46 254 138 306 283 301 310 274 310 321 279 287 278 265 267 273 312 273 266 262 261
180 161 171 166 172 160 161 156 158 166 169 186 191 198 162 83 185 154 158 171 166 143 140 148 176 157 158 160 159 159 152 124 164 160 180 172 196 200 185 219 171 184 189 127 110 227 153 142 6 87 120 355 105 168 95 33 150 112 191 222 170 127 111 137 210 344 143 211 258 96 227 292 6 267 327 324 276 273 258 242 266 272 268 274 261 260 255 246
163 165 147 163 159 151 153 157 157 168 179 180 201 165 122 143 175 156 151 156 156 161 152 158 163 160 165 155 177 167 167 156 174 175 179 183 216 193 184 187 179 182 182 217 139 227 128 77 256 1 122 228 22 105 59 343 23 150 196 195 139 215 227 293 110 224 170 243 270 301 270 254 194 228 328 288 237 256 264 279 325 293 286 247 259 262 265 265
148 151 161 152 151 151 152 154 159 168 183 191 180 160 194 87 155 164 163 155 157 157 169 174 145 189 159 173 169 171 167 173 172 180 163 204 206 182 194 178 189 176 167 164 129 168 112 132 277 307 141 216 62 127 193 190 356 73 66 100 271 104 151 128 201 166 131 257 33 288 5 249 188 217 193 246 241 236 247 283 265 263 270 282 278 281 282 285
147 151 142 145 147 147 149 152 160 176 191 194 171 145 144 137 166 162 170 162 170 167 177 160 176 157 175 176 164 162 187 172 174 180 184 184 194 248 188 185 161 179 171 164 110 171 137 112 148 240 294 100 166 203 206 161 162 160 133 188 172 28 229 111 67 142 185 189 181 232 295 257 243 208 186 212 223 248 246 212 238 259 269 262 264 276 286 276
144 121 92 142 148 146 147 154 173 188 181 157 152 151 158 159 158 166 171 179 157 198 154 176 165 175 168 148 163 166 162 158 175 181 184 149 182 168 213 185 155 159 115 104 120 187 109 179 151 150 114 204 245 241 175 170 176 168 163 195 171 125 147 172 241 45 98 154 231 141 259 260 262 171 201 205 225 219 243 226 238 256 264 268 286 287 270 280
161 148 140 148 147 151 152 165 189 159 159 177 177 161 154 134 143 161 169 182 175 166 4 166 183 170 169 168 165 170 163 176 181 179 206 165 202 35 204 147 147 152 158 178 172 235 139 96 103 154 205 175 196 42 236 200 49 187 164 208 173 171 110 151 203 251 14 254 111 177 299 273 193 189 204 212 214 233 270 200 245 267 272 280 287 286 287 257
151 103 109 147 156 152 158 180 161 167 170 158 121 127 141 146 153 163 162 176 174 140 102 165 172 140 185 163 156 150 163 150 172 187 137 124 187 218 179 149 142 160 140 89 82 202 91 92 77 335 335 309 320 342 30 34 74 252 288 58 146 189 179 167 157 184 172 243 214 276 255 265 269 135 217 250 352 301 292 224 248 272 267 282 286 302 302 310
119 128 139 154 163 160 167 181 169 164 125 138 135 136 113 146 152 158 170 174 170 176 173 160 167 192 165 166 160 171 169 149 196 143 91 173 148 221 149 146 153 164 166 183 169 194 146 258 126 118 54 351 339 344 344 339 150 189 162 197 157 98 79 142 100 102 166 218 177 158 244 259 270 355 12 22 313 289 271 256 209 247 273 267 282 286 289 292
119 111 116 148 166 175 175 170 157 140 141 145 144 141 134 148 173 164 164 175 181 176 164 185 176 160 160 153 167 163 173 148 147 182 97 119 108 347 160 158 166 170 149 124 116 124 79 182 136 152 164 172 184 197 207 200 181 192 97 115 141 148 124 123 219 201 229 232 173 195 243 292 283 340 11 314 303 290 266 255 267 232 266 286 280 283 293 300
165 145 151 139 169 179 182 191 159 152 145 144 129 151 133 132 161 188 169 169 149 162 151 109 98 113 120 144 150 157 171 124 147 191 140 156 126 170 192 166 169 162 140 132 136 130 124 152 180 173 183 200 203 58 76 106 98 188 202 171 190 188 188 174 121 136 218 211 167 228 196 102 312 209 312 268 244 241 266 315 312 290 269 262 261 278 279 271
130 160 158 155 145 188 182 165 172 160 159 150 137 158 152 156 152 163 179 162 214 136 106 134 148 146 166 150 163 172 171 115 114 128 148 133 25 140 34 173 141 133 131 126 148 95 100 140 213 194 201 202 140 162 184 141 178 204 170 196 187 175 177 180 172 219 135 87 242 199 134 223 244 268 257 259 269 267 288 265 254 266 276 283 276 257 270 275
162 152 142 138 83 168 175 184 182 165 150 161 149 154 155 153 161 154 169 278 146 166 127 114 169 174 166 170 159 163 166 151 149 163 155 144 104 114 127 277 157 174 144 156 168 158 154 194 211 153 223 96 163 144 170 164 184 174 177 186 185 197 175 199 219 216 123 200 232 122 188 218 221 225 231 238 225 195 229 263 256 259 312 331 328 295 280 266
94 70 115 107 121 153 165 108 158 167 160 159 122 159 156 157 162 167 165 152 163 178 164 163 180 172 176 167 162 162 165 149 195 170 165 166 159 154 153 150 268 201 157 137 191 172 152 227 173 183 183 132 168 160 168 162 137 133 185 188 197 185 204 211 222 208 201 227 239 195 230 246 201 229 224 238 197 206 254 270 327 340 310 255 256 263 263 264
150 154 145 95 54 152 151 154 168 160 160 160 144 178 159 162 164 165 172 161 169 185 175 181 181 177 175 171 171 173 181 189 182 179 179 155 156 161 170 171 140 79 150 167 166 272 168 225 139 124 125 194 135 86 179 168 151 182 213 202 200 204 211 214 217 219 225 262 262 302 294 273 232 202 243 242 206 244 276 282 265 266 237 215 218 235 245 246
100 106 130 125 138 159 149 157 161 166 157 186 162 163 167 172 172 168 173 185 177 173 184 188 180 174 175 176 185 191 190 191 177 173 157 158 168 181 147 243 154 153 137 125 116 37 80 128 96 120 156 225 221 147 120 81 93 188 220 218 215 208 212 218 219 204 195 229 233 255 259 250 153 218 221 315 317 289 269 269 266 260 249 228 225 244 244 249
71 53 101 134 117 157 148 153 153 155 177 179 159 164 166 178 171 163 153 329 250 206 191 183 167 160 181 181 193 199 186 172 164 140 155 146 105 91 72 134 143 148 144 150 86 128 128 122 133 145 156 226 325 124 121 96 89 329 255 229 207 199 207 208 220 211 212 211 210 223 239 244 227 158 149 227 220 232 244 251 260 268 251 214 224 234 241 246